BEIDOU 17

Last updated on Jan. 29, 2020, 4:37 a.m. UTC

1 40549U 15019A   20028.92547825 -.00000171  00000-0  00000+0 0  9991
2 40549  53.2622 322.8212 0034811 194.2986  39.0677  1.00261806 17701
UTC
Height (km)
Latitude
Longitude
Inclination
Orbital Period
UTC large
Height (km)
Speed (km/s)
/
Latitude / Longitude
Inclination (degrees)
Orbital Period (minutes)
Azimuth
Elevation
Range (km)
Doppler Factor
iOS Compass Heading
iOS Angle

Next 30 passes for location: Hong Kong

Rise time Rise Azimuth (degrees) Set time Set Azimuth (degrees) Duration Max altitude (degrees)

No matching passes for this satellites